FREGAT DEB

Satellite information

Favourite Embed

Satellite Type and Status

DEBRISIN ORBIT

Key statistics

Satellite FREGAT DEB at a glance.

Uptime

5101

Days in orbit

Revolutions

≈ 10.2

Per day

Orbit

MEO

Medium Earth Orbit

Inclination

51.6

Latest

Satellite identification and parameters

Extended collection of information and parameters for FREGAT DEB.

Object identification

Identified? True

Debris? True

Object name: FREGAT DEB

International designator: 2011-037LM

Object number (NORAD): 46406

Object ID (CCSDS): 46406

Country: COMMONWEALTH OF INDEPENDENT STATES (CIS)

Current information (Y/N): Y

RCS size: SMALL

Orbital parameters

Period: 141.079 minutes

Inclination: 51.5807 deg

SMA: 8977.068 km

Apoapsis: 4419.623 km

Periapsis: 778.242 km

RAAN: 315.2967 deg

Eccentricy: 0.2028157

Argument of periapsis: 247.0185 deg

Mean anomaly: 90.467 deg

Mean motion: 10.20706798 rev/day

Mean motion (dot): 0.0000179 rev/day2

B* drag term: 0.0053459 1/REarth

Two-line elements (TLE)

Creation date: May 29, 2025, 3:15 a.m.

Reference frame: TEME

Reference center: EARTH

Epoch: May 25, 2025, 7:56 p.m. UTC

TLE line 0: 0 FREGAT DEB

TLE line 1: 1 46406U 11037LM 25145.83071501 .00001790 00000-0 53459-2 0 9999

TLE line 2: 2 46406 51.5807 315.2967 2028157 247.0185 90.4670 10.20706798179433

Live tracking on map

Real-time ground track for satellite FREGAT DEB.

In-orbit conjunctions

A list of the most updated potential collisions computed for object FREGAT DEB.

Target Orbit TCA Probability of collision Miss distance Type
NOAA 6 SSO 2025-02-17 14:42:50 0.0002363713 748.0 (m) PAYLOAD

Associated space launch

The RadioAstron is an international space Very Long Baseline Interferometry project led by the Astro Space Center of Lebedev Physical Institute in Moscow, Russia. The aim of the mission is to use the Spektr-R space telescope to conduct interferometer observations in conjunction with the global ground radio telescope network in order to obtain images, coordinates, motions and evolution of angular structure of different radio emitting objects in the Universe with the extraordinary high angular resolution.

FREGAT DEB was lifted into orbit during the mission ‘Zenit-3F | Spektr-R (RadioAstron)’, on board a Zenit 3F space rocket.

The launch took place on July 18, 2011, 2:31 a.m. from 45/1.

For more information about the launch, click the button.

Launch to space Zenit-3F | Spektr-R (RadioAstron)
Zenit-3F | Spektr-R (RadioAstron)

Agency: N/A

Status: Launch Successful

Launch date: July 18, 2011, 2:31 a.m. UTC

Rocket: Zenit 3F

Launch pad: 45/1

Location: Baikonur Cosmodrome, Republic of Kazakhstan

...

Latest news about this satellite

There are no fresh news available about this satellite. Check back as we update our databases every day.


Newsletter sign-up

Weekly statistics, charts and insights to help you stay on top of the space industry.